EW5939 Weather Reports


Display with metric or nautical units.
time (UTC)temp
F
wind
direction
speed
MPH
gust
MPH
rain 1hr
in
rain 24hr
in
rain mn
in
humidity
%
barometer
mb
20260509173047 54 0 0.0 3.0 0.00 0.51 0.37 100 1008.5
20260509171539 53 0 0.0 2.0 0.00 0.51 0.37 100 1008.6
20260509170048 53 0 0.0 2.0 0.00 0.51 0.37 100 1008.6
20260509164544 52 0 0.0 1.0 0.00 0.54 0.37 100 1008.5
20260509163058 52 0 0.0 5.0 0.00 0.54 0.37 100 1008.5
20260509161539 52 0 0.0 1.0 0.00 0.54 0.37 100 1008.4
20260509160048 52 0 0.0 4.0 0.00 0.54 0.37 100 1008.3
20260509154549 51 0 0.0 1.0 0.00 0.54 0.37 100 1008.3
20260509153045 51 0 0.0 7.0 0.00 0.54 0.37 100 1008.2
20260509151547 51 0 0.0 4.0 0.00 0.54 0.37 100 1008.2
20260509150045 51 0 0.0 4.0 0.01 0.54 0.37 100 1008.3
20260509144550 51 0 0.0 3.0 0.02 0.54 0.37 100 1008.3
20260509143047 50 0 0.0 1.0 0.02 0.54 0.37 100 1008.3
20260509141559 50 0 0.0 3.0 0.03 0.54 0.37 100 1008.3
20260509140057 50 0 0.0 1.0 0.03 0.52 0.36 100 1008.3
20260509134544 50 0 0.0 2.0 0.03 0.52 0.35 100 1008.5
20260509133045 49 0 0.0 5.0 0.04 0.52 0.35 100 1008.4
20260509131543 49 0 0.0 4.0 0.04 0.51 0.34 100 1008.5
20260509130047 49 0 0.0 1.0 0.04 0.50 0.33 100 1008.5
20260509124541 49 0 0.0 0.0 0.05 0.49 0.32 100 1008.8
20260509123054 49 0 0.0 9.0 0.05 0.48 0.31 100 1008.9
20260509121547 48 0 0.0 1.0 0.05 0.47 0.30 100 1008.9
20260509120041 48 0 0.0 1.0 0.05 0.46 0.29 100 1008.9
20260509114541 48 0 0.0 7.0 0.04 0.44 0.27 100 1008.8
20260509113045 47 0 0.0 0.0 0.05 0.43 0.26 100 1008.7
20260509111546 47 0 0.0 0.0 0.05 0.42 0.25 100 1008.7
20260509110038 47 0 0.0 0.0 0.05 0.41 0.24 100 1008.7
20260509104544 47 0 0.0 0.0 0.06 0.40 0.23 100 1008.7
20260509103049 47 0 0.0 1.0 0.05 0.38 0.21 100 1008.9
20260509101546 47 0 0.0 0.0 0.05 0.37 0.20 100 1009.0
20260509100053 47 0 0.0 0.0 0.05 0.36 0.19 100 1009.0
20260509094544 47 0 0.0 2.0 0.04 0.36 0.17 100 1009.1
20260509093046 47 0 0.0 0.0 0.05 0.35 0.16 100 1009.3
20260509091551 47 0 0.0 0.0 0.04 0.34 0.15 100 1009.5
20260509090041 47 0 0.0 2.0 0.04 0.33 0.14 100 1009.3
20260509084548 47 0 0.0 0.0 0.03 0.32 0.13 100 1009.5
20260509083048 47 0 0.0 0.0 0.02 0.30 0.11 100 1009.5
20260509081557 47 0 0.0 0.0 0.02 0.30 0.11 100 1009.4
20260509080050 47 0 0.0 0.0 0.01 0.29 0.10 100 1009.5
20260509074543 47 0 0.0 0.0 0.00 0.28 0.09 100 1009.3
20260509073046 46 0 0.0 0.0 0.01 0.28 0.09 100 1009.2
20260509071538 46 0 0.0 0.0 0.02 0.28 0.09 100 1009.2
20260509070047 47 0 0.0 0.0 0.02 0.28 0.09 100 1009.4
20260509064544 47 0 0.0 0.0 0.03 0.28 0.09 100 1009.7
20260509063045 46 0 0.0 0.0 0.03 0.27 0.08 100 1009.9
20260509061556 46 0 0.0 0.0 0.02 0.26 0.07 100 1010.0
20260509060042 46 0 0.0 0.0 0.03 0.26 0.07 100 1010.4
20260509054550 46 0 0.0 0.0 0.03 0.25 0.06 100 1010.6
20260509053057 46 0 0.0 0.0 0.03 0.24 0.05 100 1010.6
20260509051549 47 0 0.0 0.0 0.04 0.24 0.05 100 1011.0
20260509050049 47 0 0.0 0.0 0.04 0.23 0.04 100 1011.3
20260509044547 47 0 0.0 0.0 0.04 0.22 0.03 100 1011.5
20260509043046 47 0 0.0 0.0 0.03 0.21 0.02 100 1011.5
20260509041546 47 0 0.0 0.0 0.03 0.20 0.01 100 1011.7
20260509040049 47 0 0.0 0.0 0.03 0.19 0.00 100 1011.8
20260509034550 47 0 0.0 0.0 0.03 0.18 0.18 100 1011.7
20260509033044 47 0 0.0 0.0 0.04 0.18 0.18 100 1012.0
20260509031544 47 0 0.0 0.0 0.03 0.17 0.17 100 1012.2
20260509030049 47 0 0.0 0.0 0.03 0.16 0.16 100 1012.4
20260509024545 47 0 0.0 0.0 0.03 0.15 0.15 100 1012.5
20260509023045 47 0 0.0 0.0 0.02 0.14 0.14 100 1012.2
20260509021545 47 0 0.0 0.0 0.03 0.14 0.14 100 1012.1
20260509020043 47 0 0.0 0.0 0.02 0.13 0.13 100 1012.0
20260509014543 47 0 0.0 0.0 0.01 0.12 0.12 100 1012.1
20260509013046 47 0 0.0 0.0 0.02 0.12 0.12 100 1011.9
20260509011546 47 0 0.0 0.0 0.02 0.11 0.11 100 1011.6
20260509010046 48 0 0.0 0.0 0.03 0.11 0.11 100 1011.6
20260509004548 48 0 0.0 0.0 0.02 0.10 0.10 100 1011.5
20260509003048 48 0 0.0 1.0 0.03 0.10 0.10 100 1011.7
20260509001538 49 0 0.0 0.0 0.03 0.09 0.09 100 1011.4
20260509000047 49 0 0.0 0.0 0.02 0.08 0.08 100 1011.1
20260508234547 49 0 0.0 0.0 0.02 0.08 0.08 100 1011.0
20260508233045 49 0 0.0 1.0 0.01 0.07 0.07 17 1010.9
20260508231618 50 0 0.0 0.0 0.00 0.06 0.06 40 1011.0
20260508230051 52 0 0.0 1.0 0.00 0.06 0.06 60 1011.2
20260508224538 52 229 0.0 3.0 0.00 0.06 0.06 65 1011.2
20260508223043 53 0 0.0 4.0 0.00 0.06 0.06 65 1011.1
20260508221543 53 0 0.0 3.0 0.00 0.06 0.06 63 1011.1
20260508220043 53 0 0.0 1.0 0.00 0.06 0.06 62 1011.1
20260508214554 53 0 0.0 4.0 0.00 0.06 0.06 63 1011.1
20260508213050 53 0 0.0 1.0 0.00 0.06 0.06 63 1011.1
20260508211542 54 0 0.0 0.0 0.00 0.06 0.06 64 1010.9
20260508210041 54 0 0.0 6.0 0.00 0.06 0.06 65 1011.0
20260508204545 54 0 0.0 0.0 0.01 0.06 0.06 57 1011.0
20260508203051 54 0 0.0 0.0 0.01 0.06 0.06 57 1011.0
20260508201541 53 0 0.0 0.0 0.01 0.06 0.06 49 1011.4
20260508200049 52 0 0.0 2.0 0.01 0.06 0.06 52 1011.4
20260508194553 52 0 0.0 3.0 0.00 0.05 0.05 47 1011.4
20260508193056 52 0 0.0 9.0 0.00 0.05 0.05 47 1011.6
20260508191544 53 0 0.0 3.0 0.00 0.05 0.05 63 1011.7
20260508190042 57 0 0.0 2.0 0.00 0.05 0.05 64 1011.5
20260508184539 58 0 0.0 1.0 0.00 0.05 0.05 61 1011.0
20260508183046 59 0 0.0 2.0 0.00 0.05 0.05 63 1011.3
20260508181551 56 0 0.0 1.0 0.00 0.05 0.05 65 1011.7
20260508180046 57 0 0.0 0.0 0.00 0.05 0.05 64 1011.8
20260508174542 55 0 0.0 0.0 0.01 0.05 0.05 64 1012.0